[[{"header":{"parameterUnit":"m.s-1","parameterCategory":1,"la1":30.2991,"la2":30.254,"lo1":-89.0895,"lo2":-89.0444,"dy":0.0017,"dx":0.0017,"nx":28,"ny":28,"refTime":"2025-04-11T21:00:00:Z","depth":0,"parameterNumber":2,"parameterNumberName":"U-component_of_WINDS"},"data":[0,0,0,0,0,0,0,0,0,0,0,0,0,0,0,0,0,0,0,0,0,0,0,0,0,0,0,0,0,0,0,0,0,0,0,0,0,0,0,0,0,0,0,0,0,0,0,0,0,0,0,0,0,0,0,0,0,0,-1.7632,-1.7634,0,-1.7756,-1.7758,-1.7759,-1.781,-1.781,-1.7809,-1.7809,-1.7937,-1.7941,-1.7944,0,0,0,0,0,0,0,0,0,0,0,0,0,-1.7442,-1.7445,-1.7632,-1.7634,-1.7635,-1.7756,-1.7758,-1.7759,-1.781,-1.781,-1.7809,-1.7809,-1.7936,-1.794,-1.7945,0,0,0,0,0,0,0,0,0,0,0,0,0,-1.7541,-1.7446,-1.7632,-1.7675,-1.768,-1.7756,-1.7758,-1.776,-1.781,-1.781,-1.7809,-1.7809,-1.7935,-1.794,-1.7945,-1.7988,0,0,-1.7962,-1.7965,0,0,0,0,0,0,0,0,-1.7535,-1.7548,-1.7667,-1.7672,-1.7678,-1.7767,-1.7738,-1.7836,-1.781,-1.7761,-1.7809,-1.7809,-1.7881,-1.7891,-1.7915,-1.7994,-1.7999,-1.7963,-1.7966,-1.7968,-1.797,0,0,0,0,0,0,0,-1.7528,-1.7543,-1.7681,-1.7669,-1.7676,-1.7689,-1.7703,-1.7757,-1.7822,-1.7765,-1.7769,-1.7783,-1.7884,-1.791,-1.7919,-1.8001,-1.7963,-1.7967,-1.7971,-1.7973,-1.8121,-1.8122,0,0,0,0,0,0,-1.7514,-1.7537,-1.7678,-1.7685,-1.7604,-1.7693,-1.7708,-1.7739,-1.7821,-1.7833,-1.7783,-1.7785,-1.79,-1.7912,-1.7923,-1.7978,-1.7968,-1.7973,-1.7977,-1.8121,-1.8121,-1.8122,0,0,0,0,0,0,-1.751,-1.7526,-1.7673,-1.7612,-1.7632,-1.7696,-1.7731,-1.7742,-1.7767,-1.7835,-1.7847,-1.7797,-1.7901,-1.7915,-1.7971,-1.7983,-1.7976,-1.7981,-1.812,-1.8121,-1.8122,-1.8088,0,0,0,0,0,0,-1.7504,-1.7524,-1.754,-1.7612,-1.7635,-1.7718,-1.7732,-1.7744,-1.7777,-1.778,-1.7851,-1.7863,-1.7901,-1.7963,-1.7977,-1.7991,-1.7985,-1.8119,-1.812,-1.8121,-1.8089,-1.8088,-1.8088,0,0,0,0,0,-1.7497,-1.7526,-1.7541,-1.7558,-1.7656,-1.7718,-1.7731,-1.7775,-1.7777,-1.7794,-1.7838,-1.7861,-1.798,-1.7968,-1.7984,-1.8,-1.8118,-1.812,-1.8121,-1.8089,-1.8088,-1.8088,0,0,0,0,0,0,-1.7455,-1.7536,-1.7554,-1.7607,-1.7655,-1.7727,-1.7749,-1.7772,-1.7821,-1.7823,-1.7875,-1.7891,-1.7942,-1.7977,-1.7962,-1.8046,-1.8051,-1.8056,-1.8021,-1.8021,-1.802,-1.8011,-1.799,0,0,0,0,0,-1.7452,-1.7495,-1.7564,-1.7604,-1.7628,-1.7684,-1.7713,-1.7742,-1.7795,-1.7815,-1.7863,-1.7914,-1.7963,-1.7994,-1.8043,-1.8094,-1.8111,-1.8113,-1.8113,-1.8112,-1.8115,-1.8146,-1.8148,-1.8127,-1.8127,-1.8127,0,0,-1.7445,-1.7495,-1.7519,-1.7597,-1.7638,-1.7682,-1.7701,-1.7747,-1.778,-1.7823,-1.7878,-1.7915,-1.7975,-1.8029,-1.8055,-1.8059,-1.8125,-1.8114,-1.8113,-1.8117,-1.8148,-1.815,-1.8151,-1.8128,-1.8128,-1.8127,0,0,-1.7457,-1.7499,-1.7537,-1.7577,-1.7639,-1.7677,-1.7686,-1.7754,-1.778,-1.7837,-1.787,-1.7911,-1.7994,-1.8035,-1.8067,-1.8095,-1.8118,-1.811,-1.8107,-1.8136,-1.8137,-1.8139,-1.8149,-1.8152,-1.8113,-1.8113,-1.8113,0,-1.7441,-1.7508,-1.7554,-1.7598,-1.7631,-1.7671,-1.7711,-1.7748,-1.7823,-1.7845,-1.7849,-1.7955,-1.7998,-1.8063,-1.8069,-1.8094,-1.8107,-1.8101,-1.8133,-1.8136,-1.8138,-1.8148,-1.8152,-1.8111,-1.8112,-1.8112,-1.8112,0,-1.7486,-1.7532,-1.7556,-1.7627,-1.7663,-1.7704,-1.7757,-1.7788,-1.7815,-1.7852,-1.7909,-1.7963,-1.8023,-1.8041,-1.8067,-1.811,-1.811,-1.8123,-1.8129,-1.8138,-1.8148,-1.8153,-1.8109,-1.811,-1.811,-1.8111,0,0,-1.7474,-1.7569,-1.7577,-1.761,-1.7681,-1.7718,-1.7762,-1.7821,-1.7847,-1.7897,-1.7935,-1.8005,-1.8018,-1.8054,-1.8086,-1.8111,-1.813,-1.8121,-1.8124,-1.8121,-1.818,-1.817,-1.8174,-1.8146,-1.8147,-1.8148,-1.8175,0,-1.7494,-1.7574,-1.7616,-1.7678,-1.7721,-1.7761,-1.7799,-1.7847,-1.7884,-1.7926,-1.7967,-1.8016,-1.8029,-1.8051,-1.8078,-1.8122,-1.8143,-1.8121,-1.8183,-1.8184,-1.8166,-1.8179,-1.8169,-1.8192,-1.818,-1.8181,-1.8181,0,-1.7529,-1.7578,-1.7644,-1.7711,-1.7731,-1.7764,-1.7822,-1.7862,-1.7918,-1.7943,-1.7983,-1.8015,-1.8063,-1.8066,-1.8134,-1.8118,-1.8146,-1.8172,-1.8174,-1.8181,-1.8183,-1.8187,-1.8201,-1.8204,-1.8188,-1.8187,-1.8187,0,-1.7513,-1.7596,-1.7646,-1.7673,-1.7752,-1.7775,-1.7809,-1.7865,-1.7898,-1.7948,-1.797,-1.8026,-1.8057,-1.81,-1.8146,-1.8143,-1.8209,-1.8216,-1.8232,-1.823,-1.8243,-1.8242,-1.8262,-1.8262,-1.8262,-1.8262,-1.8261,0,-1.7532,-1.757,-1.764,-1.7671,-1.7716,-1.7765,-1.7808,-1.7845,-1.7895,-1.7934,-1.7972,-1.8008,-1.8067,-1.8111,-1.8147,-1.8198,-1.8212,-1.8234,-1.8243,-1.823,-1.8227,-1.8249,-1.8248,-1.8263,-1.8262,-1.8262,-1.8262,0,-1.7521,-1.7569,-1.7627,-1.7697,-1.7716,-1.7746,-1.7806,-1.7838,-1.7877,-1.7926,-1.7941,-1.8001,-1.8055,-1.8105,-1.8177,-1.8202,-1.8253,-1.8265,-1.8234,-1.8239,-1.8251,-1.8249,-1.8286,-1.8293,-1.8288,-1.8288,-1.8288,0,-1.753,-1.756,-1.7634,-1.7662,-1.7696,-1.7742,-1.7775,-1.7825,-1.7859,-1.7926,-1.7949,-1.8006,-1.8053,-1.8138,-1.8189,-1.8244,-1.8258,-1.8266,-1.8266,-1.8252,-1.8258,-1.8255,-1.8259,-1.8265,-1.8265,-1.8265,-1.8265,0,-1.754,-1.7562,-1.7609,-1.7664,-1.7703,-1.7749,-1.7796,-1.7818,-1.7877,-1.7913,-1.7968,-1.8005,-1.8078,-1.8134,-1.8195,-1.8232,-1.8258,-1.8265,-1.8271,-1.8258,-1.8239,-1.825,-1.8231,-1.8263,-1.8264,-1.8264,-1.8264,-1.8264,-1.7539,-1.7568,-1.7624,-1.7675,-1.7716,-1.776,-1.7793,-1.7836,-1.7882,-1.7945,-1.7973,-1.8028,-1.8085,-1.8169,-1.8206,-1.8251,-1.8256,-1.8266,-1.8268,-1.827,-1.8267,-1.8232,-1.8262,-1.8262,-1.8262,-1.8262,-1.8262,0,-1.7551,-1.7589,-1.7636,-1.77,-1.7741,-1.7762,-1.7816,-1.7848,-1.7896,-1.7946,-1.7993,-1.8056,-1.8111,-1.8166,-1.8224,-1.8249,-1.8263,-1.8263,-1.8261,-1.8269,-1.8259,-1.8247,-1.825,-1.825,-1.825,-1.825,-1.825,-1.825,-1.7562,-1.7612,-1.7642,-1.7713,-1.7752,-1.7806,-1.7835,-1.7875,-1.7916,-1.7984,-1.803,-1.8065,-1.8118,-1.818,-1.8231,-1.8246,-1.8266,-1.8262,-1.828,-1.8269,-1.827,-1.827,-1.826,-1.8266,-1.8266,-1.8287,-1.8287,-1.8287]},{"header":{"parameterUnit":"m.s-1","parameterCategory":1,"la1":30.2991,"la2":30.254,"lo1":-89.0895,"lo2":-89.0444,"dy":0.0017,"dx":0.0017,"nx":28,"ny":28,"refTime":"2025-04-11T21:00:00:Z","depth":0,"parameterNumber":3,"parameterNumberName":"V-component_of_WINDS"},"data":[0,0,0,0,0,0,0,0,0,0,0,0,0,0,0,0,0,0,0,0,0,0,0,0,0,0,0,0,0,0,0,0,0,0,0,0,0,0,0,0,0,0,0,0,0,0,0,0,0,0,0,0,0,0,0,0,0,0,3.0453,3.0453,0,3.0474,3.0474,3.0474,3.0495,3.0496,3.0496,3.0496,3.0516,3.0516,3.0516,0,0,0,0,0,0,0,0,0,0,0,0,0,3.043,3.043,3.0453,3.0453,3.0453,3.0474,3.0474,3.0474,3.0495,3.0496,3.0496,3.0496,3.0516,3.0516,3.0516,0,0,0,0,0,0,0,0,0,0,0,0,0,3.0444,3.043,3.0453,3.0466,3.0468,3.0474,3.0474,3.0474,3.0495,3.0496,3.0496,3.0496,3.0516,3.0516,3.0516,3.051,0,0,3.0517,3.0518,0,0,0,0,0,0,0,0,3.0443,3.0445,3.0464,3.0465,3.0467,3.0482,3.0473,3.0486,3.0495,3.0485,3.0496,3.0497,3.0504,3.0505,3.0508,3.0511,3.0512,3.0517,3.0518,3.0518,3.0518,0,0,0,0,0,0,0,3.0442,3.0444,3.0461,3.0464,3.0466,3.0471,3.0473,3.0476,3.0492,3.0486,3.0487,3.0489,3.0505,3.0508,3.0509,3.0512,3.0517,3.0518,3.0518,3.0518,3.0511,3.051,0,0,0,0,0,0,3.044,3.0443,3.046,3.0462,3.0456,3.0471,3.0474,3.0477,3.0492,3.0494,3.0489,3.049,3.0507,3.0509,3.051,3.0504,3.0518,3.0518,3.0518,3.0511,3.0511,3.051,0,0,0,0,0,0,3.0439,3.0441,3.0459,3.0453,3.0456,3.0471,3.0474,3.0477,3.048,3.0494,3.0497,3.0489,3.0508,3.0509,3.051,3.0504,3.0518,3.0519,3.0512,3.0511,3.051,3.0491,0,0,0,0,0,0,3.0438,3.0441,3.0438,3.0453,3.0456,3.046,3.0474,3.0477,3.0481,3.0483,3.0495,3.0498,3.0508,3.0509,3.051,3.0505,3.0519,3.0512,3.0511,3.0511,3.0492,3.0489,3.0487,0,0,0,0,0,3.0437,3.0432,3.0438,3.044,3.0454,3.0459,3.0461,3.0473,3.048,3.0478,3.0488,3.0497,3.0505,3.0509,3.0511,3.0505,3.0513,3.0512,3.0511,3.0493,3.049,3.0487,0,0,0,0,0,0,3.0415,3.0434,3.0441,3.044,3.0448,3.0463,3.046,3.047,3.0475,3.0477,3.0492,3.0494,3.0493,3.05,3.0504,3.05,3.051,3.051,3.0496,3.0494,3.0491,3.049,3.0519,0,0,0,0,0,3.041,3.0414,3.0429,3.0427,3.0431,3.0445,3.0448,3.0457,3.0465,3.0469,3.0478,3.0485,3.049,3.0492,3.0497,3.0493,3.0496,3.049,3.0488,3.0486,3.0485,3.0484,3.0482,3.0507,3.0507,3.0507,0,0,3.04,3.041,3.0411,3.0423,3.043,3.0433,3.0447,3.045,3.0452,3.0469,3.047,3.0477,3.0487,3.0485,3.0485,3.0491,3.0479,3.0485,3.0483,3.0483,3.0483,3.048,3.0478,3.0506,3.0507,3.0507,0,0,3.0382,3.0391,3.039,3.0397,3.0408,3.0418,3.0418,3.0431,3.0437,3.0439,3.0452,3.0455,3.0461,3.0468,3.0472,3.0458,3.0467,3.0459,3.0447,3.0446,3.0444,3.0442,3.0437,3.0435,3.0458,3.0458,3.0458,0,3.0368,3.0373,3.0388,3.039,3.0394,3.0411,3.041,3.0416,3.0427,3.043,3.0436,3.0446,3.0453,3.0454,3.045,3.0453,3.0453,3.0457,3.0443,3.0441,3.044,3.0435,3.0433,3.0457,3.0457,3.0457,3.0457,0,3.0355,3.0358,3.0356,3.0368,3.0372,3.0372,3.0387,3.039,3.0399,3.0408,3.0409,3.0419,3.0426,3.0427,3.0436,3.0429,3.0432,3.044,3.045,3.0436,3.0432,3.043,3.0456,3.0456,3.0456,3.0457,0,0,3.0323,3.0344,3.0343,3.0349,3.0363,3.0365,3.0367,3.0374,3.0376,3.0384,3.0385,3.0391,3.0399,3.0404,3.0413,3.0412,3.0401,3.0421,3.0421,3.0416,3.0394,3.0387,3.0385,3.0407,3.0407,3.0407,3.0393,0,3.0307,3.0311,3.0325,3.0324,3.0327,3.0344,3.0345,3.0353,3.0362,3.0366,3.0376,3.038,3.039,3.0393,3.0393,3.0402,3.0396,3.0403,3.0408,3.0408,3.0404,3.0383,3.0376,3.0362,3.0392,3.0391,3.0391,0,3.029,3.0297,3.0297,3.0312,3.0314,3.0315,3.0323,3.0327,3.0337,3.0344,3.0349,3.036,3.0362,3.0372,3.0375,3.0379,3.0382,3.0387,3.0387,3.0387,3.0398,3.0382,3.0358,3.0356,3.0389,3.0389,3.0389,0,3.0266,3.0276,3.0278,3.0283,3.03,3.03,3.0307,3.0318,3.0322,3.0329,3.0332,3.0339,3.0343,3.0348,3.0361,3.0367,3.0362,3.0373,3.0367,3.0366,3.0364,3.0364,3.034,3.0367,3.0367,3.0367,3.0367,0,3.0247,3.0246,3.0268,3.0268,3.0268,3.0284,3.0283,3.0292,3.0301,3.0304,3.0318,3.032,3.0337,3.0341,3.0351,3.0351,3.0353,3.0358,3.036,3.0356,3.0356,3.0358,3.0359,3.0367,3.0367,3.0367,3.0367,0,3.022,3.0235,3.0237,3.0254,3.0258,3.0257,3.0271,3.0273,3.0283,3.0286,3.0287,3.0303,3.0308,3.0321,3.033,3.0337,3.0335,3.0339,3.0331,3.0333,3.0326,3.0326,3.0302,3.03,3.0328,3.0328,3.0328,0,3.0207,3.0207,3.0224,3.0227,3.0234,3.0239,3.0243,3.0259,3.0263,3.0275,3.0275,3.0282,3.0288,3.0296,3.0307,3.0314,3.0319,3.031,3.032,3.0316,3.0319,3.0318,3.0318,3.0308,3.0307,3.0307,3.0307,0,3.0182,3.0189,3.0196,3.0205,3.021,3.0218,3.0226,3.0227,3.0245,3.0249,3.0255,3.026,3.0269,3.0276,3.0284,3.0291,3.0302,3.0304,3.0303,3.0298,3.0293,3.0296,3.0325,3.0304,3.0304,3.0304,3.0305,3.0305,3.0161,3.0162,3.0175,3.0181,3.019,3.0197,3.02,3.0211,3.0216,3.0225,3.0234,3.024,3.025,3.0263,3.027,3.0274,3.0279,3.0277,3.0277,3.0276,3.0274,3.0293,3.0275,3.0275,3.0275,3.0275,3.0276,0,3.0137,3.0146,3.0152,3.0164,3.0169,3.018,3.019,3.0193,3.0198,3.0208,3.0214,3.0221,3.0227,3.024,3.0247,3.0248,3.0253,3.025,3.0249,3.0251,3.0269,3.0269,3.0245,3.0245,3.0245,3.0245,3.0245,3.0245,3.0125,3.0127,3.0136,3.0143,3.0152,3.0157,3.0162,3.0169,3.0177,3.0185,3.0191,3.0199,3.021,3.0218,3.0225,3.0228,3.023,3.0225,3.023,3.0247,3.0249,3.0252,3.0252,3.0225,3.0225,3.0211,3.0211,3.0211]}]]